| time (UTC) | temp F | wind direction | speed knots | gust knots | rain 1hr in | rain 24hr in | rain mn in | humidity % | barometer mb |
| 20260502130657 | 59 | 228 | 0.0 | 4.3 | 0.00 | 1.71 | 0.04 | 57 | 1013.7 |
| 20260502122656 | 61 | 304 | 0.0 | 5.2 | 0.00 | 1.71 | 0.04 | 50 | 1013.7 |
| 20260502120656 | 63 | 266 | 2.6 | 6.1 | 0.00 | 1.71 | 0.04 | 48 | 1013.4 |
| 20260502114657 | 63 | 300 | 7.0 | 11.3 | 0.00 | 1.71 | 0.04 | 48 | 1013.2 |
| 20260502113009 | 63 | 249 | 7.0 | 12.2 | 0.00 | 1.71 | 0.04 | 48 | 1012.9 |
| 20260502112656 | 63 | 248 | 5.2 | 8.7 | 0.00 | 1.71 | 0.04 | 48 | 1012.8 |
| 20260502110656 | 63 | 273 | 3.5 | 9.6 | 0.00 | 1.71 | 0.04 | 46 | 1012.7 |
| 20260502104657 | 64 | 245 | 5.2 | 8.7 | 0.00 | 1.71 | 0.04 | 46 | 1012.1 |
| 20260502102656 | 64 | 276 | 6.1 | 9.6 | 0.00 | 1.71 | 0.04 | 44 | 1011.9 |
| 20260502100657 | 64 | 290 | 4.3 | 13.0 | 0.00 | 1.71 | 0.04 | 43 | 1011.8 |
| 20260502090656 | 66 | 284 | 9.6 | 16.5 | 0.00 | 1.71 | 0.04 | 40 | 1010.8 |
| 20260502070656 | 72 | 298 | 13.0 | 20.0 | 0.00 | 1.71 | 0.04 | 38 | 1010.1 |
| 20260502064656 | 72 | 278 | 9.6 | 16.5 | 0.00 | 1.71 | 0.04 | 39 | 1010.0 |
| 20260502062655 | 73 | 278 | 7.8 | 13.9 | 0.00 | 1.71 | 0.04 | 37 | 1009.6 |
| 20260502060656 | 73 | 281 | 11.3 | 15.6 | 0.00 | 1.71 | 0.04 | 34 | 1009.4 |
| 20260502054657 | 75 | 264 | 6.1 | 11.3 | 0.00 | 1.71 | 0.04 | 35 | 1009.1 |
| 20260502052656 | 75 | 250 | 7.8 | 17.4 | 0.00 | 1.71 | 0.04 | 33 | 1009.1 |
| 20260502050656 | 73 | 267 | 7.8 | 22.6 | 0.00 | 1.71 | 0.04 | 33 | 1008.7 |
| 20260502044655 | 75 | 262 | 7.8 | 18.2 | 0.00 | 1.71 | 0.04 | 32 | 1008.6 |
| 20260502042656 | 75 | 191 | 9.6 | 15.6 | 0.00 | 1.71 | 0.04 | 31 | 1008.3 |
| 20260502040657 | 73 | 208 | 8.7 | 19.1 | 0.00 | 1.71 | 0.04 | 34 | 1008.3 |
| 20260502034657 | 73 | 219 | 10.4 | 17.4 | 0.00 | 1.71 | 0.04 | 34 | 1008.1 |
| 20260502032656 | 73 | 222 | 7.8 | 14.8 | 0.00 | 1.71 | 0.04 | 35 | 1008.0 |
| 20260502030656 | 73 | 222 | 9.6 | 14.8 | 0.00 | 1.71 | 0.04 | 35 | 1007.9 |
| 20260502024655 | 73 | 276 | 4.3 | 16.5 | 0.00 | 1.71 | 0.04 | 32 | 1007.9 |
| 20260502022656 | 73 | 297 | 6.1 | 15.6 | 0.00 | 1.71 | 0.04 | 27 | 1007.6 |
| 20260502020656 | 73 | 59 | 3.5 | 9.6 | 0.00 | 1.71 | 0.04 | 38 | 1007.5 |
| 20260502014655 | 70 | 169 | 3.5 | 7.8 | 0.00 | 1.71 | 0.04 | 42 | 1007.5 |
| 20260502012656 | 68 | 180 | 3.5 | 8.7 | 0.00 | 1.71 | 0.04 | 47 | 1007.4 |
| 20260502010657 | 66 | 105 | 2.6 | 4.3 | 0.00 | 1.71 | 0.04 | 50 | 1007.6 |
| 20260502004657 | 64 | 186 | 0.9 | 5.2 | 0.00 | 1.71 | 0.04 | 54 | 1007.4 |
| 20260502002656 | 63 | 131 | 0.9 | 7.8 | 0.00 | 1.71 | 0.04 | 62 | 1007.3 |
| 20260502000656 | 61 | 108 | 2.6 | 8.7 | 0.00 | 1.71 | 0.04 | 66 | 1007.0 |
| 20260501234656 | 59 | 77 | 2.6 | 6.1 | 0.00 | 1.71 | 0.04 | 76 | 1007.3 |
| 20260501232655 | 57 | 51 | 1.7 | 5.2 | 0.00 | 1.71 | 0.04 | 81 | 1007.5 |
| 20260501230656 | 55 | 65 | 3.5 | 6.1 | 0.00 | 1.71 | 0.04 | 92 | 1007.5 |
| 20260501224656 | 54 | 153 | 2.6 | 6.1 | 0.00 | 1.71 | 0.04 | 96 | 1007.3 |
| 20260501222656 | 54 | 153 | 1.7 | 5.2 | 0.00 | 1.71 | 0.04 | 98 | 1007.2 |
| 20260501220656 | 52 | 94 | 3.5 | 7.8 | 0.00 | 1.71 | 0.04 | 100 | 1006.6 |
| 20260501214657 | 52 | 103 | 3.5 | 7.0 | 0.00 | 1.71 | 0.04 | 100 | 1006.4 |
| 20260501212656 | 50 | 87 | 5.2 | 12.2 | 0.00 | 1.71 | 0.04 | 100 | 1005.9 |
| 20260501210657 | 48 | 226 | 0.9 | 4.3 | 0.00 | 1.71 | 0.04 | 100 | 1005.5 |
| 20260501210009 | 48 | 34 | 0.9 | 3.5 | 0.00 | 1.71 | 0.04 | 100 | 1005.5 |
| 20260501204656 | 48 | 301 | 0.0 | 3.5 | 0.00 | 1.71 | 0.04 | 100 | 1005.1 |
| 20260501203008 | 48 | 264 | 0.0 | 3.5 | 0.00 | 1.71 | 0.04 | 100 | 1004.7 |
| 20260501202655 | 48 | 250 | 1.7 | 2.6 | 0.00 | 1.71 | 0.04 | 100 | 1004.5 |
| 20260501202008 | 48 | 188 | 0.0 | 3.5 | 0.00 | 1.71 | 0.04 | 100 | 1004.0 |
| 20260501201009 | 48 | 235 | 1.7 | 3.5 | 0.00 | 1.71 | 0.04 | 100 | 1003.9 |
| 20260501200656 | 48 | 207 | 0.0 | 2.6 | 0.00 | 1.71 | 0.04 | 100 | 1003.8 |
| 20260501200009 | 48 | 235 | 0.9 | 5.2 | 0.00 | 1.71 | 0.04 | 100 | 1003.9 |
| 20260501195009 | 48 | 322 | 4.3 | 6.1 | 0.00 | 1.71 | 0.04 | 100 | 1003.8 |
| 20260501194655 | 48 | 315 | 0.9 | 6.1 | 0.00 | 1.71 | 0.04 | 100 | 1003.6 |
| 20260501194009 | 48 | 153 | 0.9 | 4.3 | 0.00 | 1.71 | 0.04 | 100 | 1003.5 |
| 20260501193008 | 50 | 302 | 2.6 | 7.0 | 0.00 | 1.71 | 0.04 | 100 | 1003.4 |
| 20260501192656 | 50 | 255 | 2.6 | 7.0 | 0.00 | 1.71 | 0.04 | 100 | 1003.6 |
| 20260501192009 | 50 | 323 | 0.0 | 6.1 | 0.00 | 1.71 | 0.04 | 100 | 1003.5 |
| 20260501191008 | 50 | 276 | 0.9 | 3.5 | 0.00 | 1.71 | 0.03 | 100 | 1003.4 |
| 20260501190655 | 50 | 87 | 0.0 | 7.0 | 0.00 | 1.71 | 0.03 | 100 | 1003.3 |
| 20260501190007 | 50 | 59 | 4.3 | 7.0 | 0.00 | 1.71 | 0.03 | 100 | 1003.3 |
| 20260501184656 | 52 | 240 | 0.0 | 6.1 | 0.00 | 1.71 | 0.03 | 98 | 1003.2 |
| 20260501183008 | 52 | 37 | 3.5 | 8.7 | 0.00 | 1.71 | 0.03 | 97 | 1003.3 |
| 20260501182657 | 52 | 13 | 4.3 | 8.7 | 0.00 | 1.71 | 0.03 | 96 | 1003.3 |
| 20260501182008 | 52 | 55 | 4.3 | 13.9 | 0.00 | 1.71 | 0.03 | 94 | 1003.2 |
| 20260501181009 | 50 | 288 | 6.1 | 12.2 | 0.00 | 1.71 | 0.03 | 99 | 1002.5 |
| 20260501180655 | 50 | 350 | 2.6 | 8.7 | 0.00 | 1.71 | 0.03 | 99 | 1002.3 |
| 20260501174656 | 52 | 291 | 5.2 | 9.6 | 0.00 | 1.71 | 0.03 | 100 | 1001.9 |
| 20260501173008 | 50 | 181 | 3.5 | 7.0 | 0.00 | 1.71 | 0.03 | 100 | 1001.9 |
| 20260501172656 | 50 | 162 | 2.6 | 7.0 | 0.00 | 1.71 | 0.03 | 100 | 1002.0 |
| 20260501172008 | 50 | 243 | 3.5 | 9.6 | 0.00 | 1.71 | 0.03 | 100 | 1001.8 |
| 20260501171008 | 50 | 158 | 8.7 | 13.0 | 0.00 | 1.71 | 0.03 | 100 | 1001.6 |
| 20260501170655 | 50 | 162 | 3.5 | 8.7 | 0.00 | 1.71 | 0.03 | 100 | 1001.5 |
| 20260501170009 | 50 | 246 | 3.5 | 9.6 | 0.00 | 1.71 | 0.03 | 100 | 1001.6 |
| 20260501165009 | 50 | 156 | 7.8 | 12.2 | 0.00 | 1.71 | 0.03 | 100 | 1001.3 |
| 20260501164656 | 50 | 177 | 5.2 | 9.6 | 0.00 | 1.71 | 0.03 | 100 | 1001.3 |
| 20260501162655 | 50 | 166 | 5.2 | 11.3 | 0.00 | 1.71 | 0.03 | 100 | 1001.1 |
| 20260501162009 | 50 | 180 | 3.5 | 6.1 | 0.00 | 1.71 | 0.03 | 100 | 1001.0 |
| 20260501161009 | 50 | 325 | 0.0 | 6.1 | 0.00 | 1.71 | 0.03 | 100 | 1001.0 |
| 20260501160655 | 50 | 180 | 2.6 | 12.2 | 0.00 | 1.71 | 0.03 | 100 | 1001.0 |
| 20260501160008 | 50 | 167 | 2.6 | 14.8 | 0.00 | 1.71 | 0.03 | 100 | 1001.0 |
| 20260501154657 | 50 | 167 | 4.3 | 7.8 | 0.00 | 1.71 | 0.03 | 100 | 1001.3 |
| 20260501154008 | 50 | 146 | 4.3 | 11.3 | 0.00 | 1.71 | 0.03 | 100 | 1000.9 |
| 20260501153009 | 50 | 191 | 3.5 | 10.4 | 0.00 | 1.71 | 0.03 | 100 | 1000.8 |
| 20260501152656 | 50 | 218 | 5.2 | 10.4 | 0.00 | 1.71 | 0.03 | 100 | 1000.9 |
| 20260501152008 | 50 | 249 | 5.2 | 10.4 | 0.00 | 1.71 | 0.02 | 100 | 1001.0 |
| 20260501151008 | 50 | 207 | 6.1 | 12.2 | 0.00 | 1.71 | 0.01 | 100 | 1000.7 |
| 20260501150656 | 50 | 173 | 6.1 | 10.4 | 0.00 | 1.71 | 0.01 | 100 | 1000.7 |
| 20260501144656 | 50 | 149 | 0.0 | 0.0 | 0.00 | 0.09 | 1.71 | 100 | 1000.7 |
| 20260501144008 | 50 | 149 | 0.0 | 0.0 | 0.00 | 0.09 | 1.71 | 100 | 1000.5 |
| 20260501143009 | 50 | 149 | 0.0 | 4.3 | 0.00 | 0.09 | 1.71 | 100 | 1000.4 |